Regional Weather Roundup
Issued by NWS

Home | Current Version | Previous Version | Text Only | Print | Product List | Glossary On
Versions: 1 2 3 4 5 6 7 8 9 10 11 12 13 14 15 16 17 18 19 20 21 22 23 24 25 26 27 28 29 30 31 32 33 34 35 36 37 38 39 40 41 42 43 44 45 46 47 48 49 50
000
ASUS43 KDMX 261103
RWRIA

WEATHER ROUNDUP FOR IOWA
NATIONAL WEATHER SERVICE DES MOINES IA
600 AM CDT THU MAY 26 2016

NOTE: "FAIR" INDICATES FEW OR NO CLOUDS BELOW 12,000 FEET WITH NO
SIGNIFICANT WEATHER AND/OR OBSTRUCTIONS TO VISIBILITY.

* - THESE STATIONS ARE NOT NWS STATIONS...THUS NOT UNDER NWS
QUALITY CONTROL.  THEY ALSO DO NOT REPORT WEATHER SUCH
AS PRECIPITATION OR FOG.

IAZ001>003-012>014-020>022-031>034-043>046-261200-
   NORTHWEST IOWA

CITY           SKY/WX    TMP DP  RH WIND       PRES   REMARKS
CARROLL *      CLOUDY    57  55  94 SE3       29.88R
CHEROKEE *     CLEAR     57  57 100 CALM      29.85S
DENISON *      CLEAR     55  55 100 CALM      29.84S
LE MARS *      CLEAR     59  57  94 MISG      29.85S
SHELDON *      CLEAR     57  57 100 SW6       29.84S
SIOUX CITY     FOG       55  53  93 CALM      29.84R VSB 1/2
SPENCER        CLOUDY    58  54  86 SW8       29.85R
STORM LAKE *   CLOUDY    55  55 100 CALM      29.87S
$$

IAZ055>058-069>071-079>083-090>094-261200-
   SOUTHWEST IOWA

CITY           SKY/WX    TMP DP  RH WIND       PRES   REMARKS
ATLANTIC *     CLEAR     59  57  94 CALM      29.87S
AUDUBON *        N/A     55  54  94 CALM      29.88R FOG
CLARINDA *       N/A     59  59 100 MISG      29.90R
COUNCIL BLFS * CLEAR     59  57  94 SE6       29.87S
CRESTON *      CLOUDY    61  57  88 CALM      29.91R
HARLAN  *      CLEAR     59  57  94 CALM      29.89S
LAMONI         CLOUDY    65  62  90 CALM      29.89F
RED OAK *      FOG       57  57 100 CALM      29.87S VSB 3/4
SHENANDOAH *   CLEAR     61  61 100 SE3       29.88R
$$

IAZ047>049-059>061-072>074-084-261200-
   CENTRAL IOWA

CITY           SKY/WX    TMP DP  RH WIND       PRES   REMARKS
AMES           MOCLDY    58  56  93 N7        29.87R
ANKENY *       CLOUDY    61  61 100 MISG      29.89R
BOONE *        CLOUDY    59  57  94 E6        29.86S
CHARITON *     CLOUDY    64  61  88 E5        29.90R
DES MOINES     CLOUDY    62  58  86 S7        29.88R
GRINNELL*      PTCLDY    61  57  88 E8        29.85F
KNOXVILLE *    CLOUDY    61  59  94 S6        29.88R
NEWTON *       MOCLDY    59  59 100 CALM      29.85R
PELLA *        CLOUDY    62  58  87 SE5       29.89R
PERRY *          N/A     59  58  96 E6        29.87S
$$

IAZ004>006-015-016-023>025-035-036-261200-
   NORTH CENTRAL IOWA

CITY           SKY/WX    TMP DP  RH WIND       PRES   REMARKS
ALGONA *       CLOUDY    59  57  94 SW9G20    29.86R
CLARION *      CLOUDY    59  59 100 SE12      29.85R
ESTHERVILLE    CLOUDY    57  56  96 S5        29.84S
FORT DODGE *   MOCLDY    57  54  88 S3        29.86R
MASON CITY     CLOUDY    58  57  97 E7        29.84F
WEBSTER CITY * CLOUDY    59  57  94 SE8       29.85S
IOWA FALLS *     N/A     59  57  91 CALM      29.89R
$$

IAZ007>011-017>019-026>030-037>042-050>054-066-261200-
   NORTHEAST IOWA

CITY           SKY/WX    TMP DP  RH WIND       PRES   REMARKS
CEDAR RAPIDS   LGT RAIN  61  59  93 N10       29.90R
CHARLES CITY * LGT RAIN  59  59 100 NE10      29.83F
CLINTON *      CLOUDY    68  64  87 SW6       29.90R
DECORAH *      RAIN      59  59 100 SW7G14    29.93R
DUBUQUE        LGT RAIN  63  58  83 W32G54    29.93R
MONTICELLO *   LGT RAIN  63  59  88 W23G35    29.95R
OELWEIN *      CLOUDY    59  57  94 N15G22    29.87F
WATERLOO       CLOUDY    58  56  93 N9        29.83F
$$

IAZ064-065-067-068-078-261200-
   EAST CENTRAL IOWA

CITY           SKY/WX    TMP DP  RH WIND       PRES   REMARKS
DAVENPORT      CLOUDY    72  64  76 SW9       29.90R
IOWA CITY      LGT RAIN  63  59  87 N16G24    29.94R
MUSCATINE *    CLOUDY    72  64  78 NW7       29.91R
QUAD CITIES    CLOUDY    72  65  78 SW8       29.89R
$$

IAZ062-063-075>077-085>089-095>099-261200-
   SOUTHEAST IOWA

CITY           SKY/WX    TMP DP  RH WIND       PRES   REMARKS
BURLINGTON     CLOUDY    66  64  94 SW16      29.89R
FAIRFIELD *      N/A    N/A N/A N/A MISG        N/A
FORT MADISON * CLOUDY    64  63  94 NW6       29.90R
KEOKUK *       CLOUDY    64  64 100 CALM      29.89R
OTTUMWA        CLOUDY    64  60  87 N5        29.90F
WASHINGTON *   LGT RAIN  63  63 100 N18G33    29.94R
$$

ABBREVIATIONS USED IN REMARKS
   TC - TEMPERATURES IN CELSIUS
  WCI - WIND CHILL INDEX
   HX - HEAT INDEX
  VSB - VISIBILITY
$$





USA.gov is the U.S. government's official web portal to all federal, state and local government web resources and services.